LA5PPA-1 Weather Reports


time (UTC)temp
F
wind
direction
speed
knots
gust
knots
rain 1hr
in
rain 24hr
in
rain mn
in
humidity
%
barometer
mb
20260503021702 32 68 0.0 0.0 0.00 0.00 0.00 87 1014.5
20260503021202 32 68 0.0 0.0 0.00 0.00 0.00 87 1014.5
20260503020743 33 68 0.0 0.0 0.00 0.00 0.00 86 1014.5
20260503020702 33 68 0.0 0.0 0.00 0.00 0.00 86 1014.5
20260503020603 33 68 0.0 0.0 0.00 0.00 0.00 86 1014.5
20260503020202 33 68 0.0 0.0 0.00 0.00 0.00 86 1014.6
20260503015702 33 68 0.0 0.0 0.00 0.00 0.00 86 1014.5
20260503015503 33 68 0.0 0.0 0.00 0.00 0.00 86 1014.5
20260503015202 33 68 0.0 0.0 0.00 0.00 0.00 86 1014.5
20260503014702 33 71 0.0 1.7 0.00 0.00 0.00 85 1014.5
20260503014403 34 47 0.0 0.0 0.00 0.00 0.00 85 1014.5
20260503014202 34 47 0.0 0.0 0.00 0.00 0.00 85 1014.5
20260503013702 34 47 0.0 1.7 0.00 0.00 0.00 86 1014.5
20260503013303 34 307 0.0 3.5 0.00 0.00 0.00 87 1014.6
20260503013202 34 323 0.9 3.5 0.00 0.00 0.00 87 1014.5
20260503012702 33 315 3.5 3.5 0.00 0.00 0.00 88 1014.5
20260503012202 33 52 0.0 0.0 0.00 0.00 0.00 86 1014.5
20260503011702 33 52 0.0 0.0 0.00 0.00 0.00 86 1014.5
20260503011202 34 52 0.0 0.9 0.00 0.00 0.00 86 1014.5
20260503011104 34 52 0.0 0.9 0.00 0.00 0.00 86 1014.5
20260503010702 34 98 0.0 0.9 0.00 0.00 0.00 86 1014.5
20260503010202 34 109 0.9 0.9 0.00 0.00 0.00 86 1014.5
20260503010003 34 358 0.0 1.7 0.00 0.00 0.00 86 1014.5
20260503005702 34 320 0.9 1.7 0.00 0.00 0.00 86 1014.4
20260503005202 34 331 0.0 1.7 0.00 0.00 0.00 87 1014.5
20260503004903 34 354 0.0 1.7 0.00 0.00 0.00 87 1014.5
20260503004702 34 334 0.0 0.9 0.00 0.00 0.00 87 1014.5
20260503004202 34 340 0.0 0.9 0.00 0.00 0.00 87 1014.5
20260503003803 34 338 0.0 0.9 0.00 0.00 0.00 87 1014.3
20260503003702 34 338 0.0 1.7 0.00 0.00 0.00 87 1014.4
20260503003202 33 29 0.0 1.7 0.00 0.00 0.00 87 1014.4
20260503002702 33 30 0.0 0.9 0.00 0.00 0.00 86 1014.3
20260503002202 33 5 0.0 0.9 0.00 0.00 0.00 86 1014.4
20260503001702 33 45 0.0 0.9 0.00 0.00 0.00 85 1014.4
20260503001603 34 16 0.0 0.9 0.00 0.00 0.00 85 1014.4
20260503001202 34 60 0.0 0.0 0.00 0.00 0.00 85 1014.4
20260503000702 34 60 0.0 0.0 0.00 0.00 0.00 85 1014.4
20260503000503 34 60 0.0 0.9 0.00 0.00 0.00 85 1014.4
20260503000203 34 78 0.0 0.9 0.00 0.00 0.00 86 1014.4
20260502235702 34 334 0.0 1.7 0.00 0.00 0.00 86 1014.4
20260502235403 34 338 0.0 2.6 0.00 0.00 0.00 86 1014.5
20260502235202 34 313 0.9 2.6 0.00 0.00 0.00 86 1014.5
20260502234702 34 343 0.0 0.0 0.00 0.00 0.00 85 1014.6
20260502234303 34 343 0.0 0.9 0.00 0.00 0.00 86 1014.6
20260502234202 34 343 0.0 0.9 0.00 0.00 0.00 86 1014.7
20260502233702 34 0 0.0 1.7 0.00 0.00 0.00 85 1014.7
20260502233202 34 39 1.7 1.7 0.00 0.00 0.00 85 1014.7
20260502232702 34 18 0.0 0.0 0.00 0.00 0.00 84 1014.7
20260502232202 35 18 0.0 0.0 0.00 0.00 0.00 83 1014.7
20260502232103 35 18 0.0 0.0 0.00 0.00 0.00 83 1014.7
20260502231703 35 18 0.0 0.0 0.00 0.00 0.00 83 1014.7
20260502231202 35 18 0.0 1.7 0.00 0.00 0.00 83 1014.7
20260502231003 36 37 0.9 1.7 0.00 0.00 0.00 83 1014.7
20260502230703 36 334 0.0 1.7 0.00 0.00 0.00 84 1014.7
20260502230202 36 23 0.0 2.6 0.00 0.00 0.00 84 1014.7
20260502225903 36 310 2.6 3.5 0.00 0.00 0.00 84 1014.6
20260502225702 36 327 1.7 3.5 0.00 0.00 0.00 85 1014.6
20260502225202 36 336 0.0 1.7 0.00 0.00 0.00 83 1014.6
20260502224803 36 22 0.0 3.5 0.00 0.00 0.00 84 1014.6
20260502224702 36 348 0.9 3.5 0.00 0.00 0.00 84 1014.6
20260502224202 36 316 3.5 3.5 0.00 0.00 0.00 84 1014.7
20260502223702 36 344 1.7 1.7 0.00 0.00 0.00 83 1014.6
20260502223202 36 316 0.0 1.7 0.00 0.00 0.00 83 1014.6
20260502222702 36 14 0.9 0.9 0.00 0.00 0.00 83 1014.6
20260502222603 36 21 0.9 0.9 0.00 0.00 0.00 82 1014.6
20260502222202 36 331 0.0 0.9 0.00 0.00 0.00 82 1014.6
20260502221702 36 8 0.0 2.6 0.00 0.00 0.00 82 1014.5
20260502221503 36 329 1.7 5.2 0.00 0.00 0.00 82 1014.5
20260502221202 36 345 0.0 5.2 0.00 0.00 0.00 82 1014.5
20260502220403 36 323 2.6 4.3 0.00 0.00 0.00 82 1014.5
20260502220202 36 327 3.5 4.3 0.00 0.00 0.00 82 1014.4
20260502215702 37 310 0.0 5.2 0.00 0.00 0.00 82 1014.4
20260502215305 37 336 0.9 3.5 0.00 0.00 0.00 82 1014.4
20260502215202 37 323 1.7 3.5 0.00 0.00 0.00 82 1014.4
20260502214702 37 330 2.6 3.5 0.00 0.00 0.00 81 1014.3
20260502214202 37 354 1.7 4.3 0.00 0.00 0.00 82 1014.3
20260502213702 37 313 1.7 4.3 0.00 0.00 0.00 82 1014.4
20260502213202 37 334 2.6 4.3 0.00 0.00 0.00 82 1014.4
20260502213103 37 343 1.7 4.3 0.00 0.00 0.00 81 1014.5
20260502212702 37 333 0.9 2.6 0.00 0.00 0.00 81 1014.4
20260502212202 37 323 1.7 3.5 0.00 0.00 0.00 81 1014.5
20260502212004 37 327 0.0 3.5 0.00 0.00 0.00 81 1014.5
20260502211702 37 327 0.0 3.5 0.00 0.00 0.00 80 1014.6
20260502211202 37 324 1.7 3.5 0.00 0.00 0.00 80 1014.6
20260502210904 37 324 2.6 3.5 0.00 0.00 0.00 80 1014.6
20260502210702 37 316 2.6 3.5 0.00 0.00 0.00 81 1014.5
20260502210202 37 330 1.7 5.2 0.00 0.00 0.00 81 1014.5
20260502205804 37 340 1.7 5.2 0.00 0.00 0.00 81 1014.5
20260502205702 37 307 4.3 5.2 0.00 0.00 0.00 81 1014.5
20260502205202 38 347 0.0 3.5 0.00 0.00 0.00 80 1014.4
20260502204702 38 351 0.9 2.6 0.00 0.00 0.00 80 1014.5
20260502204202 38 29 0.9 4.3 0.00 0.00 0.00 80 1014.5
20260502203702 38 337 2.6 5.2 0.00 0.00 0.00 80 1014.5
20260502203604 38 312 2.6 5.2 0.00 0.00 0.00 80 1014.5
20260502203202 38 316 1.7 2.6 0.00 0.00 0.00 79 1014.5
20260502202702 38 28 0.0 0.0 0.00 0.00 0.00 78 1014.5
20260502202504 39 28 0.0 0.0 0.00 0.00 0.00 78 1014.5
20260502202202 39 28 0.0 2.6 0.00 0.00 0.00 78 1014.4
20260502201702 39 0 0.0 1.7 0.00 0.00 0.00 78 1014.5
20260502201404 39 0 0.0 2.6 0.00 0.00 0.00 78 1014.6
20260502201202 39 284 0.0 2.6 0.00 0.00 0.00 78 1014.6
20260502200702 39 322 0.9 2.6 0.00 0.00 0.00 79 1014.6
20260502200304 39 337 1.7 3.5 0.00 0.00 0.00 79 1014.7
20260502200202 39 345 0.0 3.5 0.00 0.00 0.00 79 1014.7
20260502195703 39 309 2.6 6.1 0.00 0.00 0.00 78 1014.6
20260502195203 40 322 0.0 0.9 0.00 0.00 0.00 78 1014.5
20260502194703 40 327 0.0 2.6 0.00 0.00 0.00 78 1014.6
20260502194203 40 331 0.0 1.7 0.00 0.00 0.00 78 1014.6
20260502194104 40 29 0.0 1.7 0.00 0.00 0.00 78 1014.6
20260502193703 40 320 0.0 1.7 0.00 0.00 0.00 78 1014.7
20260502193203 40 317 0.0 5.2 0.00 0.00 0.00 77 1014.6
20260502193004 40 317 0.0 5.2 0.00 0.00 0.00 77 1014.6
20260502192703 40 331 0.0 7.0 0.00 0.00 0.00 78 1014.6
20260502192203 40 327 3.5 4.3 0.00 0.00 0.00 77 1014.4
20260502191904 40 319 3.5 5.2 0.00 0.00 0.00 77 1014.5
20260502191703 40 300 4.3 6.1 0.00 0.00 0.00 77 1014.5
20260502191203 41 299 1.7 7.8 0.00 0.00 0.00 76 1014.4
20260502190804 41 313 5.2 7.0 0.00 0.00 0.00 76 1014.4
20260502190703 41 337 2.6 8.7 0.00 0.00 0.00 76 1014.4
20260502190203 41 320 3.5 12.2 0.00 0.00 0.00 76 1014.4
20260502185703 42 319 5.2 7.8 0.00 0.00 0.00 75 1014.4
20260502185203 42 315 2.6 8.7 0.00 0.00 0.00 75 1014.3
20260502184703 42 303 1.7 7.0 0.00 0.00 0.00 75 1014.1
20260502184604 42 327 1.7 7.0 0.00 0.00 0.00 75 1014.3
20260502184203 42 319 1.7 4.3 0.00 0.00 0.00 75 1014.3
20260502183703 42 288 0.9 5.2 0.00 0.00 0.00 75 1014.1
20260502183504 42 298 1.7 6.1 0.00 0.00 0.00 75 1014.3
20260502183203 42 299 0.9 7.0 0.00 0.00 0.00 74 1014.3
20260502182703 43 274 2.6 6.1 0.00 0.00 0.00 74 1014.1
20260502182404 43 323 1.7 6.1 0.00 0.00 0.00 73 1014.1
20260502182203 43 299 0.9 4.3 0.00 0.00 0.00 73 1014.1
20260502181703 43 313 0.0 5.2 0.00 0.00 0.00 72 1014.0
20260502181304 44 322 2.6 5.2 0.00 0.00 0.00 72 1014.1
20260502181203 44 320 5.2 5.2 0.00 0.00 0.00 72 1014.1
20260502180703 44 313 3.5 3.5 0.00 0.00 0.00 72 1014.3
20260502180203 43 268 0.0 6.1 0.00 0.00 0.00 73 1014.1
20260502170203 44 323 1.7 3.5 0.00 0.00 0.00 71 1014.1
20260502164203 44 292 1.7 5.2 0.00 0.00 0.00 72 1014.4
20260502163703 44 291 3.5 6.1 0.00 0.00 0.00 72 1014.4
20260502163404 45 292 0.0 3.5 0.00 0.00 0.00 72 1014.5
20260502163203 44 292 0.0 4.3 0.00 0.00 0.00 72 1014.5
20260502162703 44 312 0.9 4.3 0.00 0.00 0.00 72 1014.5
20260502162305 44 282 2.6 3.5 0.00 0.00 0.00 73 1014.6
20260502162203 44 278 0.0 3.5 0.00 0.00 0.00 73 1014.6
20260502161703 44 277 0.0 3.5 0.00 0.00 0.00 72 1014.7
20260502161203 44 289 0.9 4.3 0.00 0.00 0.00 72 1014.7
20260502160703 44 272 0.0 4.3 0.00 0.00 0.00 73 1014.7
20260502160203 44 303 2.6 6.1 0.00 0.00 0.00 73 1014.7
20260502160104 44 272 2.6 6.1 0.00 0.00 0.00 72 1014.8
20260502152203 44 315 0.0 0.9 0.00 0.00 0.00 74 1015.2
20260502151703 44 327 0.0 3.5 0.00 0.00 0.00 73 1015.2
20260502151203 44 296 1.7 4.3 0.00 0.00 0.00 73 1015.2
20260502150703 45 291 0.0 6.1 0.00 0.00 0.00 72 1015.3
20260502150604 45 275 3.5 4.3 0.00 0.00 0.00 72 1015.3
20260502150203 45 292 1.7 4.3 0.00 0.00 0.00 71 1015.4
20260502130703 42 319 4.3 6.1 0.00 0.00 0.00 81 1016.1
20260502130504 42 288 2.6 6.1 0.00 0.00 0.00 81 1016.1
20260502130203 42 298 0.9 6.1 0.00 0.00 0.00 80 1016.1
20260502123703 42 317 0.9 4.3 0.00 0.00 0.00 78 1016.4
20260502123203 42 222 0.9 6.1 0.00 0.00 0.00 77 1016.3
20260502122703 42 285 1.7 5.2 0.00 0.00 0.00 76 1016.3
20260502122203 42 326 2.6 5.2 0.00 0.00 0.00 76 1016.3
20260502122104 42 305 1.7 6.1 0.00 0.00 0.00 76 1016.3
20260502121703 42 306 1.7 7.0 0.00 0.00 0.00 74 1016.3
20260502121203 43 351 0.9 7.0 0.00 0.00 0.00 73 1016.2
20260502121005 43 303 3.5 6.1 0.00 0.00 0.00 73 1016.2
20260502120703 43 296 1.7 6.1 0.00 0.00 0.00 73 1016.2
20260502120203 43 305 2.6 7.0 0.00 0.00 0.00 71 1016.2
20260502115904 43 289 3.5 7.0 0.00 0.00 0.00 72 1016.2
20260502115703 43 317 1.7 7.0 0.00 0.00 0.00 72 1016.2
20260502115203 43 329 0.0 4.3 0.00 0.00 0.00 72 1016.3
20260502114804 43 300 2.6 7.0 0.00 0.00 0.00 72 1016.3
20260502114703 43 1 0.0 7.0 0.00 0.00 0.00 72 1016.3
20260502114203 43 302 1.7 6.1 0.00 0.00 0.00 73 1016.4
20260502113703 43 127 0.9 4.3 0.00 0.00 0.00 73 1016.5
20260502113203 43 310 1.7 4.3 0.00 0.00 0.00 72 1016.4
20260502112703 43 324 1.7 5.2 0.00 0.00 0.00 72 1016.6
20260502112604 42 330 3.5 5.2 0.00 0.00 0.00 72 1016.6
20260502112203 43 329 3.5 5.2 0.00 0.00 0.00 71 1016.6
20260502111703 43 313 3.5 7.0 0.00 0.00 0.00 70 1016.5
20260502111505 43 315 3.5 7.0 0.00 0.00 0.00 69 1016.6
20260502111203 43 315 2.6 4.3 0.00 0.00 0.00 69 1016.6
20260502110703 44 305 3.5 6.1 0.00 0.00 0.00 69 1016.5
20260502110404 44 257 0.9 2.6 0.00 0.00 0.00 70 1016.5
20260502110203 44 302 0.0 1.7 0.00 0.00 0.00 70 1016.5
20260502105703 43 298 0.9 2.6 0.00 0.00 0.00 69 1016.5
20260502105306 43 309 0.0 4.3 0.00 0.00 0.00 69 1016.6
20260502105203 43 309 0.0 4.3 0.00 0.00 0.00 69 1016.5
20260502104703 43 295 0.0 4.3 0.00 0.00 0.00 69 1016.6
20260502104203 43 313 0.0 5.2 0.00 0.00 0.00 68 1016.7
20260502103703 43 291 0.0 7.0 0.00 0.00 0.00 67 1016.8
20260502103203 43 300 1.7 7.0 0.00 0.00 0.00 66 1016.9
20260502103105 43 284 0.0 7.0 0.00 0.00 0.00 65 1016.9
20260502102703 43 302 2.6 7.0 0.00 0.00 0.00 63 1016.9
20260502102203 44 272 0.0 6.1 0.00 0.00 0.00 62 1016.8
20260502102005 44 260 1.7 6.1 0.00 0.00 0.00 62 1016.8
20260502101703 44 291 0.9 6.1 0.00 0.00 0.00 62 1016.8
20260502101203 44 285 2.6 9.6 0.00 0.00 0.00 62 1016.7
20260502100905 44 288 5.2 7.0 0.00 0.00 0.00 62 1016.7
20260502100703 44 303 2.6 7.0 0.00 0.00 0.00 62 1016.6
20260502100203 43 323 0.0 4.3 0.00 0.00 0.00 63 1016.7
20260502091405 45 217 0.9 5.2 0.00 0.00 0.00 54 1016.6
20260502091204 45 300 3.5 4.3 0.00 0.00 0.00 53 1016.5
20260502090704 45 291 0.9 5.2 0.00 0.00 0.00 53 1016.5
20260502090305 45 319 0.0 5.2 0.00 0.00 0.00 52 1016.5
20260502090204 45 312 4.3 5.2 0.00 0.00 0.00 52 1016.5
20260502071305 44 246 2.6 5.2 0.00 0.00 0.00 45 1016.9
20260502071204 44 284 0.0 3.5 0.00 0.00 0.00 46 1017.1
20260502070704 44 341 0.9 7.0 0.00 0.00 0.00 44 1017.1
20260502070204 44 282 2.6 5.2 0.00 0.00 0.00 44 1016.9
20260502065704 44 331 0.0 7.8 0.00 0.00 0.00 45 1017.2
20260502065204 44 191 0.9 6.1 0.00 0.00 0.00 45 1017.1
20260502065105 44 305 2.6 5.2 0.00 0.00 0.00 45 1017.1
20260502064704 43 296 0.0 4.3 0.00 0.00 0.00 46 1017.2
20260502064204 43 291 3.5 5.2 0.00 0.00 0.00 47 1017.5
20260502064005 42 315 1.7 6.1 0.00 0.00 0.00 47 1017.4
20260502063704 42 324 0.9 6.1 0.00 0.00 0.00 47 1017.4
20260502063204 42 322 1.7 6.1 0.00 0.00 0.00 47 1017.5
20260502062905 41 298 2.6 7.0 0.00 0.00 0.00 48 1017.4
20260502062704 41 282 4.3 7.0 0.00 0.00 0.00 47 1017.2
20260502062204 41 295 2.6 4.3 0.00 0.00 0.00 48 1017.3
20260502061805 41 286 1.7 3.5 0.00 0.00 0.00 49 1017.4
20260502061704 41 265 0.9 3.5 0.00 0.00 0.00 49 1017.4
20260502061204 41 303 3.5 4.3 0.00 0.00 0.00 49 1017.5
20260502060704 40 258 0.9 4.3 0.00 0.00 0.00 49 1017.5
20260502060204 40 302 2.6 4.3 0.00 0.00 0.00 49 1017.6
20260502055704 40 306 0.0 4.3 0.00 0.00 0.00 49 1017.6
20260502055605 40 313 1.7 4.3 0.00 0.00 0.00 49 1017.5
20260502055204 40 292 2.6 5.2 0.00 0.00 0.00 48 1017.6
20260502054704 40 286 1.7 5.2 0.00 0.00 0.00 49 1017.6
20260502054505 40 306 2.6 3.5 0.00 0.00 0.00 49 1017.7
20260502054204 40 317 0.0 2.6 0.00 0.00 0.00 50 1017.6
20260502053704 40 323 1.7 5.2 0.00 0.00 0.00 49 1017.6
20260502053405 40 288 0.0 6.1 0.00 0.00 0.00 50 1017.7
20260502053204 40 288 0.0 6.1 0.00 0.00 0.00 50 1017.6
20260502052704 39 322 2.6 3.5 0.00 0.00 0.00 51 1017.6
20260502052306 39 303 1.7 5.2 0.00 0.00 0.00 52 1017.7
20260502052204 39 313 0.9 5.2 0.00 0.00 0.00 52 1017.7
20260502051704 38 320 0.0 2.6 0.00 0.00 0.00 53 1017.7
20260502051204 38 319 0.0 2.6 0.00 0.00 0.00 53 1017.7
20260502050704 38 310 0.0 5.2 0.00 0.00 0.00 54 1017.8
20260502050204 38 292 0.9 5.2 0.00 0.00 0.00 54 1017.7
20260502050105 38 281 0.9 5.2 0.00 0.00 0.00 54 1017.8
20260502045704 38 302 1.7 6.1 0.00 0.00 0.00 54 1018.0
20260502045204 37 289 1.7 6.1 0.00 0.00 0.00 55 1017.8
20260502045005 37 267 3.5 6.1 0.00 0.00 0.00 55 1018.0
20260502044704 37 316 3.5 5.2 0.00 0.00 0.00 55 1018.0
20260502044204 37 277 0.0 3.5 0.00 0.00 0.00 56 1017.8
20260502043905 37 274 1.7 5.2 0.00 0.00 0.00 56 1017.8
20260502043704 37 195 1.7 5.2 0.00 0.00 0.00 56 1018.0
20260502043204 37 260 0.9 3.5 0.00 0.00 0.00 56 1018.0
20260502042805 37 291 0.0 3.5 0.00 0.00 0.00 56 1018.0
20260502042704 37 291 0.0 3.5 0.00 0.00 0.00 56 1018.0
20260502042204 36 303 0.0 5.2 0.00 0.00 0.00 56 1018.0
20260502041704 36 288 3.5 3.5 0.00 0.00 0.00 57 1018.0
20260502041204 35 293 1.7 3.5 0.00 0.00 0.00 59 1018.0
20260502040704 35 299 0.0 2.6 0.00 0.00 0.00 61 1017.8
20260502040605 34 302 1.7 2.6 0.00 0.00 0.00 61 1018.0
20260502040204 34 230 0.0 0.0 0.00 0.00 0.00 61 1018.0
20260502035704 34 230 0.0 0.0 0.00 0.00 0.00 61 1018.0
20260502035505 34 230 0.0 0.0 0.00 0.00 0.00 62 1018.1
20260502035204 34 230 0.0 0.0 0.00 0.00 0.00 62 1018.2
20260502034704 34 230 0.0 0.0 0.00 0.00 0.00 61 1018.3
20260502034405 35 230 0.0 0.0 0.00 0.00 0.00 61 1018.2
20260502034204 35 230 0.0 0.0 0.00 0.00 0.00 61 1018.2
20260502033704 35 230 0.0 1.7 0.00 0.00 0.00 60 1018.3
20260502033305 35 336 0.0 0.0 0.00 0.00 0.00 60 1018.3
20260502033204 35 336 0.0 0.0 0.00 0.00 0.00 60 1018.3
20260502032704 36 336 0.0 1.7 0.00 0.00 0.00 60 1018.3
20260502032204 36 286 0.0 0.0 0.00 0.00 0.00 58 1018.3
20260502031704 36 286 0.0 1.7 0.00 0.00 0.00 58 1018.3
20260502031204 37 120 0.0 4.3 0.00 0.00 0.00 57 1018.3
20260502031105 37 120 0.0 7.0 0.00 0.00 0.00 56 1018.4
20260502030704 36 232 4.3 7.0 0.00 0.00 0.00 56 1018.4
20260502030204 37 239 0.0 3.5 0.00 0.00 0.00 57 1018.4
20260502030005 37 239 0.0 4.3 0.00 0.00 0.00 57 1018.4
20260502025704 37 258 0.0 4.3 0.00 0.00 0.00 57 1018.5
20260502025204 37 215 0.9 7.0 0.00 0.00 0.00 56 1018.6
20260502024905 37 281 1.7 4.3 0.00 0.00 0.00 56 1018.5
20260502024704 37 262 1.7 4.3 0.00 0.00 0.00 55 1018.6
20260502024204 38 237 0.9 5.2 0.00 0.00 0.00 55 1018.7
20260502023805 38 299 0.9 6.1 0.00 0.00 0.00 53 1018.6
20260502023704 38 300 1.7 6.1 0.00 0.00 0.00 53 1018.6
20260502023204 38 275 0.9 7.0 0.00 0.00 0.00 52 1018.9
20260502022704 39 289 5.2 10.4 0.00 0.00 0.00 51 1018.7
20260502022204 39 291 7.8 7.8 0.00 0.00 0.00 52 1018.7